Location: Gro� Glienicke
(52.4675°N, 13.1079°E)
Time: 07:36:57
(UTC+00:00)

Cosmos 1633 - Pass Details

Date: 06 July 2020
Orbit: 462 x 482 km, 82.5° (Epoch: 04 August)

Event Time Altitude Azimuth Distance (km) Brightness Sun altitude
Exits shadow 22:32:41 20° 130° (SE) 1,160 4.0 -14.5°
Maximum altitude 22:34:12 27° 91° (E) 951 3.9 -14.5°
Drops below altitude 10° 22:37:19 10° 32° (NNE) 1,664 6.0 -14.6°
Sets 22:39:37 0° 20° (NNE) 2,545 7.4 -14.6°
